Batesville, AR

6:09 PM CST on November 19, 2019 (GMT -0600)
Batesville Regional

Weather History for KBVX - October, 2019

Change the Weather History Date:

Monday, October 21, 2019

  Actual Average Record
Temperature  
Mean Temperature 64 °F -  
Max Temperature 73 °F 72 °F 88 °F (1953)
Min Temperature 54 °F 45 °F 21 °F (1952)
Degree Days  
Heating Degree Days 2    
Growing Degree Days 14 (Base 50)    
Moisture  
Dew Point 58 °F    
Average Humidity 76    
Maximum Humidity 96    
Minimum Humidity 38    
Precipitation  
Precipitation 0.48 in - - ()
Sea Level Pressure  
Sea Level Pressure 29.70 in    
Wind  
Wind Speed 11 mph ()    
Max Wind Speed 23 mph    
Max Gust Speed 32 mph    
Visibility 9.6 miles    
Events Rain , Thunderstorm    
Averages and records for this station are not official NWS values.
T = Trace of Precipitation, MM = Missing Value Source: Averaged Metar Reports

Daily Weather History Graph

Daily Weather History Graph

Search for Another Location

Airport or City:

Astronomy

Oct. 21, 2019 Rise Set
Actual Time 7:18 AM CDT 6:23 PM CDT
Civil Twilight 6:52 AM CDT 6:49 PM CDT
Nautical Twilight 6:22 AM CDT 7:19 PM CDT
Astronomical Twilight 5:52 AM CDT 7:48 PM CDT
Moon No Moon Rise 2:29 PM CDT (10/21)
Length of Visible Light 11h 57m
Length of Day
11h 05m
Waning Gibbous, 48% of the Moon is Illuminated
Oct 21
Waning Gibbous
Oct 27
New
Nov 4
First Quarter
Nov 12
Full
Nov 19
Last Quarter

Hourly Weather History & Observations

Time (CDT) Temp. Dew Point Humidity Pressure Visibility Wind Dir Wind Speed Gust Speed Precip Events Conditions
12:48 AM 71.6 °F 68.0 °F 88% 29.62 in 10.0 mi SSE 12.7 mph - N/A   Overcast
12:56 AM 72.0 °F 68.0 °F 87% 29.61 in 10.0 mi SSE 12.7 mph 20.7 mph N/A   Overcast
1:32 AM 73.4 °F 69.8 °F 88% 29.63 in 10.0 mi South 12.7 mph 19.6 mph N/A   Overcast
1:56 AM 73.0 °F 70.0 °F 90% 29.61 in 10.0 mi South 16.1 mph 21.9 mph N/A   Overcast
2:15 AM 73.4 °F 69.8 °F 88% 29.61 in 10.0 mi South 13.8 mph 19.6 mph N/A   Overcast
2:52 AM 73.4 °F 69.8 °F 88% 29.62 in 9.0 mi SSW 12.7 mph 20.7 mph N/A Thunderstorm Overcast
2:56 AM 73.9 °F 70.0 °F 87% 29.63 in 7.0 mi SW 23.0 mph 31.1 mph 0.05 in Rain , Thunderstorm Rain
3:18 AM 69.8 °F 64.4 °F 83% 29.64 in 10.0 mi WSW 21.9 mph 32.2 mph 0.07 in Rain , Thunderstorm Thunderstorms and Rain
3:37 AM 66.2 °F 62.6 °F 88% 29.61 in 10.0 mi SW 13.8 mph 25.3 mph 0.16 in Rain Rain
4:45 AM 64.4 °F 60.8 °F 88% 29.68 in 8.0 mi NW 9.2 mph - 0.13 in Rain Heavy Rain
4:56 AM 63.0 °F 61.0 °F 93% 29.66 in 6.0 mi NW 5.8 mph 16.1 mph 0.25 in Rain , Thunderstorm Heavy Rain
5:04 AM 62.6 °F 60.8 °F 94% 29.66 in 7.0 mi Calm Calm - 0.03 in Rain Light Rain
5:56 AM 62.1 °F 61.0 °F 96% 29.60 in 10.0 mi SE 9.2 mph - 0.15 in Rain Light Rain
6:56 AM 64.0 °F 62.1 °F 93% 29.64 in 10.0 mi WSW 6.9 mph 17.3 mph 0.03 in Rain Light Rain
7:49 AM 64.4 °F 60.8 °F 88% 29.65 in 10.0 mi South 9.2 mph 18.4 mph 0.00 in   Mostly Cloudy
7:56 AM 64.0 °F 61.0 °F 90% 29.62 in 10.0 mi SSE 15.0 mph 20.7 mph 0.00 in   Overcast
8:12 AM 64.4 °F 60.8 °F 88% 29.67 in 10.0 mi WSW 4.6 mph - N/A   Overcast
8:34 AM 64.4 °F 60.8 °F 88% 29.68 in 10.0 mi SW 9.2 mph - N/A   Overcast
8:56 AM 64.0 °F 61.0 °F 90% 29.69 in 10.0 mi SW 9.2 mph - N/A   Overcast
9:04 AM 64.4 °F 60.8 °F 88% 29.70 in 10.0 mi SSW 8.1 mph - N/A   Overcast
9:56 AM 64.0 °F 61.0 °F 90% 29.69 in 10.0 mi SSW 9.2 mph - N/A   Overcast
10:15 AM 64.4 °F 60.8 °F 88% 29.71 in 10.0 mi SW 5.8 mph - N/A   Scattered Clouds
10:47 AM 66.2 °F 62.6 °F 88% 29.72 in 10.0 mi WSW 9.2 mph - N/A   Mostly Cloudy
10:56 AM 66.0 °F 62.1 °F 87% 29.71 in 10.0 mi WSW 10.4 mph - N/A   Mostly Cloudy
11:56 AM 68.0 °F 57.0 °F 68% 29.74 in 10.0 mi West 13.8 mph - N/A   Scattered Clouds
12:56 PM 71.1 °F 54.0 °F 55% 29.73 in 10.0 mi SW 13.8 mph 19.6 mph N/A   Clear
1:56 PM 73.0 °F 48.9 °F 42% 29.72 in 10.0 mi West 12.7 mph - N/A   Clear
2:56 PM 73.0 °F 48.0 °F 41% 29.73 in 10.0 mi SW 13.8 mph - N/A   Clear
3:56 PM 72.0 °F 45.0 °F 38% 29.74 in 10.0 mi SW 15.0 mph - N/A   Clear
4:56 PM 69.1 °F 45.0 °F 42% 29.76 in 10.0 mi WSW 17.3 mph - N/A   Clear
5:56 PM 64.9 °F 45.0 °F 48% 29.78 in 10.0 mi SW 12.7 mph - N/A   Clear
6:56 PM 61.0 °F 45.0 °F 56% 29.80 in 10.0 mi WSW 11.5 mph - N/A   Clear
7:56 PM 59.0 °F 43.0 °F 55% 29.84 in 10.0 mi WSW 10.4 mph - N/A   Clear
9:56 PM 57.9 °F 41.0 °F 53% 29.92 in 10.0 mi West 10.4 mph - N/A   Clear
10:56 PM 54.0 °F 41.0 °F 62% 29.93 in 10.0 mi WSW 5.8 mph - N/A   Clear
11:56 PM 55.0 °F 39.9 °F 57% 29.92 in 10.0 mi West 8.1 mph - N/A   Clear